AEA74H EPKK-EDDC

Flight info

Callsign AEA74H
Flight time 0h 50m
Altitude 30000
Route OMFOL T738 EKSEK/N0399F280 Z348 RENDO DCT OSKAN OSKAN4B
Aircraft B738/M-SDE2E3FGHIRWXY/LB1

Departure

Time 2026-04-30 19:53
Airport Kraków John Paul II International Airport (EPKK)

Arrival

Time 2026-04-30 20:43
Airport Dresden Airport (EDDC)
Time Latitude Longitude Altitude Speed Heading
2026-04-30 19:19 50.07338 19.80200 787 ft 0 kts 226°
2026-04-30 19:43 50.07339 19.80202 787 ft 1 kts 226°
2026-04-30 19:43 50.07340 19.80204 787 ft 0 kts 226°
2026-04-30 19:44 50.07346 19.80214 787 ft 1 kts 200°
2026-04-30 19:44 50.07355 19.80217 787 ft 0 kts 188°
2026-04-30 19:44 50.07363 19.80220 787 ft 1 kts 143°
2026-04-30 19:44 50.07368 19.80213 787 ft 1 kts 75°
2026-04-30 19:46 50.07369 19.80215 787 ft 2 kts 73°
2026-04-30 19:47 50.07403 19.80238 787 ft 8 kts 348°
2026-04-30 19:47 50.07448 19.80230 787 ft 12 kts 11°
2026-04-30 19:47 50.07474 19.80393 786 ft 13 kts 93°
2026-04-30 19:47 50.07515 19.80427 786 ft 8 kts 353°
2026-04-30 19:48 50.07576 19.80417 786 ft 11 kts 354°
2026-04-30 19:48 50.07658 19.80389 786 ft 13 kts 345°
2026-04-30 19:48 50.07744 19.80354 786 ft 13 kts 347°
2026-04-30 19:48 50.07829 19.80333 786 ft 10 kts 349°
2026-04-30 19:49 50.07838 19.80330 786 ft 0 kts 348°
2026-04-30 19:50 50.07880 19.80316 786 ft 13 kts 348°
2026-04-30 19:51 50.07997 19.80265 785 ft 20 kts 318°
2026-04-30 19:51 50.07999 19.80143 787 ft 0 kts 256°
2026-04-30 19:52 50.07995 19.80120 787 ft 9 kts 256°
2026-04-30 19:52 50.07946 19.79785 787 ft 68 kts 258°
2026-04-30 19:52 50.07794 19.78671 793 ft 140 kts 257°
2026-04-30 19:52 50.07568 19.76861 891 ft 193 kts 260°
2026-04-30 19:53 50.07302 19.74802 1869 ft 192 kts 259°
2026-04-30 19:53 50.06998 19.72874 3216 ft 172 kts 259°
2026-04-30 19:53 50.06703 19.71149 4328 ft 163 kts 259°
2026-04-30 19:53 50.06394 19.69340 4881 ft 185 kts 264°
2026-04-30 19:54 50.06543 19.67238 5082 ft 211 kts 298°
2026-04-30 19:54 50.07233 19.65212 5835 ft 204 kts 297°
2026-04-30 19:54 50.07616 19.63299 7267 ft 168 kts 288°
2026-04-30 19:54 50.07948 19.61632 8041 ft 169 kts 297°
2026-04-30 19:55 50.08459 19.59775 8209 ft 202 kts 301°
2026-04-30 19:55 50.09118 19.57767 8646 ft 209 kts 303°
2026-04-30 19:55 50.09750 19.55685 9170 ft 221 kts 296°
2026-04-30 19:55 50.10231 19.53353 9618 ft 234 kts 292°
2026-04-30 19:56 50.10742 19.50817 9893 ft 258 kts 292°
2026-04-30 19:56 50.11297 19.48021 10182 ft 282 kts 291°
2026-04-30 19:56 50.11889 19.45037 10646 ft 297 kts 292°
2026-04-30 19:56 50.12537 19.41833 10829 ft 322 kts 292°
2026-04-30 19:57 50.13237 19.38419 11206 ft 338 kts 292°
2026-04-30 19:57 50.13954 19.34937 11854 ft 344 kts 292°
2026-04-30 19:57 50.14692 19.31373 12599 ft 347 kts 292°
2026-04-30 19:57 50.15441 19.27775 13323 ft 351 kts 293°
2026-04-30 19:58 50.16202 19.24134 13946 ft 356 kts 293°
2026-04-30 19:58 50.16977 19.20438 14533 ft 360 kts 293°
2026-04-30 19:58 50.17758 19.16710 15141 ft 363 kts 294°
2026-04-30 19:58 50.18544 19.12956 15751 ft 366 kts 294°
2026-04-30 19:59 50.19338 19.09162 16310 ft 369 kts 294°
2026-04-30 19:59 50.20137 19.05340 16879 ft 373 kts 294°
2026-04-30 19:59 50.21745 18.97627 18001 ft 379 kts 295°
2026-04-30 20:00 50.22562 18.93694 18561 ft 383 kts 295°
2026-04-30 20:00 50.23385 18.89727 19042 ft 386 kts 295°
2026-04-30 20:00 50.24217 18.85709 19482 ft 390 kts 295°
2026-04-30 20:00 50.25054 18.81661 19943 ft 394 kts 295°
2026-04-30 20:01 50.26748 18.73436 20830 ft 401 kts 295°
2026-04-30 20:01 50.27605 18.69265 21279 ft 405 kts 295°
2026-04-30 20:01 50.28467 18.65054 21724 ft 408 kts 296°
2026-04-30 20:02 50.30195 18.56594 22579 ft 415 kts 296°
2026-04-30 20:02 50.31074 18.52272 23006 ft 418 kts 296°
2026-04-30 20:03 50.32850 18.43520 23918 ft 426 kts 296°
2026-04-30 20:03 50.33746 18.39090 24325 ft 429 kts 296°
2026-04-30 20:03 50.34647 18.34623 24716 ft 432 kts 296°
2026-04-30 20:03 50.35553 18.30118 25089 ft 436 kts 296°
2026-04-30 20:04 50.36466 18.25574 25453 ft 439 kts 297°
2026-04-30 20:04 50.37384 18.20989 25822 ft 442 kts 297°
2026-04-30 20:04 50.38307 18.16371 26192 ft 446 kts 297°
2026-04-30 20:05 50.40153 18.07097 26898 ft 452 kts 297°
2026-04-30 20:05 50.41083 18.02399 27356 ft 452 kts 297°
2026-04-30 20:05 50.43216 17.93259 28365 ft 441 kts 304°
2026-04-30 20:06 50.44459 17.88861 28808 ft 440 kts 306°
2026-04-30 20:06 50.45727 17.84489 29265 ft 440 kts 306°
2026-04-30 20:06 50.46991 17.80126 29749 ft 439 kts 306°
2026-04-30 20:06 50.48242 17.75759 30248 ft 438 kts 306°
2026-04-30 20:07 50.49487 17.71368 30388 ft 443 kts 306°
2026-04-30 20:07 50.50719 17.66986 30399 ft 445 kts 305°
2026-04-30 20:08 50.54373 17.53747 30390 ft 438 kts 305°
2026-04-30 20:08 50.56797 17.44939 30398 ft 440 kts 304°
2026-04-30 20:09 50.59223 17.36092 30398 ft 441 kts 304°
2026-04-30 20:09 50.62860 17.22752 30391 ft 442 kts 304°
2026-04-30 20:10 50.66449 17.09500 30396 ft 439 kts 304°
2026-04-30 20:11 50.70019 16.96255 30394 ft 436 kts 303°
2026-04-30 20:11 50.72382 16.87452 30407 ft 436 kts 303°
2026-04-30 20:12 50.75901 16.74280 30410 ft 436 kts 303°
2026-04-30 20:13 50.78249 16.65448 30401 ft 436 kts 303°
2026-04-30 20:13 50.80590 16.56600 30407 ft 436 kts 303°
2026-04-30 20:14 50.82931 16.47725 30408 ft 437 kts 303°
2026-04-30 20:14 50.85263 16.38847 30412 ft 437 kts 303°
2026-04-30 20:15 50.87590 16.29953 30412 ft 437 kts 302°
2026-04-30 20:15 50.89894 16.21115 30407 ft 437 kts 302°
2026-04-30 20:16 50.92202 16.12220 30411 ft 436 kts 302°
2026-04-30 20:16 50.94502 16.03326 30404 ft 435 kts 302°
2026-04-30 20:17 50.96821 15.94352 30417 ft 448 kts 302°
2026-04-30 20:17 50.98868 15.86406 30419 ft 456 kts 301°
2026-04-30 20:18 51.01236 15.77119 30414 ft 458 kts 301°
2026-04-30 20:18 51.03615 15.67749 30406 ft 456 kts 301°
2026-04-30 20:19 51.05975 15.58423 30408 ft 453 kts 301°
2026-04-30 20:19 51.08311 15.49165 30407 ft 449 kts 301°
2026-04-30 20:20 51.10611 15.40023 30392 ft 445 kts 300°
2026-04-30 20:20 51.11739 15.35505 30198 ft 434 kts 300°
2026-04-30 20:20 51.12854 15.31044 29519 ft 435 kts 300°
2026-04-30 20:20 51.13975 15.26566 28824 ft 436 kts 300°
2026-04-30 20:21 51.15098 15.22076 28078 ft 438 kts 300°
2026-04-30 20:21 51.16225 15.17557 27350 ft 440 kts 299°
2026-04-30 20:21 51.17333 15.13076 27206 ft 427 kts 299°
2026-04-30 20:21 51.18401 15.08737 27108 ft 414 kts 300°
2026-04-30 20:22 51.19438 15.04529 27030 ft 402 kts 300°
2026-04-30 20:22 51.20315 15.00344 26943 ft 397 kts 291°
2026-04-30 20:22 51.20766 14.96003 26754 ft 396 kts 284°
2026-04-30 20:22 51.21061 14.91651 26388 ft 394 kts 283°
2026-04-30 20:23 51.21332 14.87303 25963 ft 394 kts 283°
2026-04-30 20:23 51.21607 14.82969 25584 ft 392 kts 283°
2026-04-30 20:23 51.21887 14.78720 25242 ft 390 kts 283°
2026-04-30 20:23 51.22178 14.74431 24910 ft 387 kts 283°
2026-04-30 20:24 51.22471 14.70178 24564 ft 385 kts 283°
2026-04-30 20:24 51.22764 14.65944 24212 ft 383 kts 283°
2026-04-30 20:24 51.23036 14.61722 23848 ft 384 kts 278°
2026-04-30 20:24 51.22728 14.57450 23398 ft 395 kts 257°
2026-04-30 20:25 51.20460 14.49478 22702 ft 393 kts 245°
2026-04-30 20:25 51.19210 14.45614 22322 ft 392 kts 245°
2026-04-30 20:26 51.16727 14.37995 21623 ft 387 kts 245°
2026-04-30 20:26 51.14267 14.30458 20946 ft 383 kts 245°
2026-04-30 20:26 51.13044 14.26701 20621 ft 381 kts 245°
2026-04-30 20:27 51.10627 14.19256 19974 ft 376 kts 245°
2026-04-30 20:27 51.08248 14.11887 19326 ft 373 kts 245°
2026-04-30 20:28 51.05903 14.04586 18696 ft 369 kts 245°
2026-04-30 20:28 51.03612 13.97415 18052 ft 363 kts 245°
2026-04-30 20:29 51.01345 13.90307 17434 ft 358 kts 245°
2026-04-30 20:30 50.98012 13.79864 16498 ft 350 kts 245°
2026-04-30 20:30 50.93646 13.70981 15254 ft 340 kts 225°
2026-04-30 20:31 50.88828 13.63355 14577 ft 309 kts 225°
2026-04-30 20:32 50.84298 13.56265 13383 ft 302 kts 225°
2026-04-30 20:32 50.81459 13.51814 13035 ft 275 kts 225°
2026-04-30 20:33 50.80112 13.49686 12436 ft 274 kts 228°
2026-04-30 20:33 50.79093 13.44268 11361 ft 253 kts 291°
2026-04-30 20:33 50.79853 13.42045 11237 ft 218 kts 323°
2026-04-30 20:34 50.82401 13.41017 10304 ft 189 kts 13°
2026-04-30 20:34 50.84985 13.41792 9154 ft 188 kts 23°
2026-04-30 20:35 50.86209 13.42517 8622 ft 187 kts 25°
2026-04-30 20:35 50.87420 13.43254 8103 ft 187 kts 25°
2026-04-30 20:35 50.89610 13.45224 7158 ft 178 kts 44°
2026-04-30 20:36 50.90546 13.46499 6711 ft 177 kts 42°
2026-04-30 20:36 50.91483 13.47727 6259 ft 177 kts 42°
2026-04-30 20:36 50.93394 13.50168 5381 ft 175 kts 41°
2026-04-30 20:37 50.94349 13.51365 4905 ft 175 kts 40°
2026-04-30 20:37 50.95299 13.52548 4463 ft 173 kts 39°
2026-04-30 20:37 50.96246 13.53719 4071 ft 173 kts 39°
2026-04-30 20:37 50.97209 13.54888 4057 ft 175 kts 37°
2026-04-30 20:38 50.98197 13.56028 4019 ft 176 kts 39°
2026-04-30 20:38 50.99171 13.57206 3993 ft 175 kts 39°
2026-04-30 20:38 51.00105 13.58410 3964 ft 173 kts 41°
2026-04-30 20:39 51.01945 13.60921 3534 ft 173 kts 42°
2026-04-30 20:39 51.02836 13.62151 3307 ft 163 kts 41°
2026-04-30 20:39 51.03642 13.63267 3115 ft 153 kts 41°
2026-04-30 20:40 51.05247 13.65491 2681 ft 147 kts 41°
2026-04-30 20:40 51.06008 13.66553 2315 ft 149 kts 42°
2026-04-30 20:40 51.06766 13.67586 2198 ft 137 kts 40°
2026-04-30 20:41 51.08085 13.69385 2014 ft 128 kts 42°
2026-04-30 20:41 51.08746 13.70338 2021 ft 124 kts 42°
2026-04-30 20:41 51.09389 13.71247 1924 ft 131 kts 40°
2026-04-30 20:41 51.10101 13.72194 1676 ft 136 kts 41°
2026-04-30 20:42 51.10810 13.73178 1354 ft 134 kts 42°
2026-04-30 20:42 51.11533 13.74169 1143 ft 137 kts 42°
2026-04-30 20:42 51.12903 13.76065 747 ft 123 kts 42°
2026-04-30 20:43 51.13458 13.76845 730 ft 89 kts 41°
2026-04-30 20:43 51.13827 13.77336 726 ft 38 kts 41°
2026-04-30 20:43 51.13898 13.77508 718 ft 3 kts 114°
2026-04-30 20:44 51.13838 13.77631 717 ft 0 kts 130°
2026-04-30 20:45 51.13831 13.77644 719 ft 7 kts 131°
2026-04-30 20:45 51.13767 13.77736 712 ft 12 kts 163°
2026-04-30 20:45 51.13742 13.77701 715 ft 12 kts 226°
2026-04-30 20:46 51.13322 13.77126 730 ft 30 kts 220°
2026-04-30 20:46 51.13167 13.76921 736 ft 28 kts 219°
2026-04-30 20:47 51.12891 13.76532 743 ft 23 kts 221°
2026-04-30 20:47 51.12781 13.76478 747 ft 18 kts 135°
2026-04-30 20:48 51.12641 13.76720 749 ft 0 kts 137°
2026-04-30 20:48 51.12632 13.76729 750 ft 3 kts 153°
2026-04-30 20:48 51.12600 13.76715 750 ft 6 kts 210°
2026-04-30 20:48 51.12573 13.76679 746 ft 0 kts 221°
2026-04-30 20:49 51.12571 13.76676 746 ft 0 kts 221°